This demonstration page uses our WeatherBlox Daily Observations layout. Learn more.

Left ArrowRight Arrow

53.62937, 11.41316

Hourly Observations for January 26, 2022

Temp ( °F °C ) Dew Point ( °F °C ) Humidity (%) Winds ( mph kmh ) Pressure ( in mb ) Visibility ( mi km ) Precip ( " mm )
12:20 am 00:20 Cloudy 39 4 37 3 93 93 WSW 8 13 30.39 1029 30 48 N/A
12:50 am 00:50 Cloudy 39 4 37 3 93 93 W 9 15 30.39 1029 30 48 N/A
1:20 am 01:20 Cloudy 39 4 37 3 93 93 W 10 17 30.39 1029 30 48 N/A
1:50 am 01:50 Cloudy 39 4 37 3 93 93 W 9 15 30.39 1029 6 9 N/A
2:20 am 02:20 Mostly Cloudy 39 4 37 3 93 93 W 9 15 30.39 1029 3 5 N/A
2:50 am 02:50 Mostly Cloudy 39 4 37 3 93 93 W 9 15 30.39 1029 6 9 N/A
3:20 am 03:20 Cloudy 39 4 37 3 93 93 W 9 15 30.36 1028 30 48 N/A
3:50 am 03:50 Cloudy 39 4 37 3 93 93 W 9 15 30.36 1028 30 48 N/A
4:20 am 04:20 Cloudy 39 4 37 3 93 93 WSW 8 13 30.36 1028 5 8 N/A
4:50 am 04:50 Cloudy 39 4 37 3 93 93 WSW 8 13 30.33 1027 5 8 N/A
5:20 am 05:20 Cloudy 39 4 37 3 93 93 WSW 10 17 30.36 1028 5 8 N/A
5:50 am 05:50 Cloudy 39 4 37 3 93 93 WSW 8 13 30.33 1027 4 6 N/A
6:20 am 06:20 Mostly Cloudy 39 4 37 3 93 93 WSW 8 13 30.33 1027 4 7 N/A
6:50 am 06:50 Cloudy 39 4 37 3 93 93 WSW 9 15 30.33 1027 4 6 N/A
7:20 am 07:20 Cloudy 39 4 37 3 93 93 WSW 10 17 30.30 1026 4 6 N/A
7:50 am 07:50 Cloudy 39 4 37 3 93 93 WSW 9 15 30.30 1026 4 6 N/A
8:20 am 08:20 Mostly Cloudy 39 4 36 2 87 87 WSW 9 15 30.30 1026 5 8 N/A
8:50 am 08:50 Mostly Cloudy 39 4 36 2 87 87 WSW 10 17 30.33 1027 5 8 N/A
9:50 am 09:50 Mostly Cloudy 37 3 36 2 93 93 WSW 9 15 30.30 1026 4 7 N/A
10:20 am 10:20 Mostly Cloudy 37 3 36 2 93 93 WSW 12 19 30.33 1027 4 6 N/A
10:50 am 10:50 Mostly Cloudy 37 3 36 2 93 93 WSW 10 17 30.33 1027 4 6 N/A
11:20 am 11:20 Mostly Cloudy 37 3 36 2 93 93 WSW 12 19 30.33 1027 4 6 N/A
11:50 am 11:50 Mostly Cloudy with Mist and Fog 37 3 36 2 93 93 WSW 12 19 30.30 1026 3 5 N/A
12:20 pm 12:20 Cloudy with Mist and Fog 37 3 36 2 93 93 W 12 19 30.30 1026 3 4 N/A
12:50 pm 12:50 Cloudy with Mist and Fog 37 3 36 2 93 93 WSW 13 20 30.30 1026 3 5 N/A
1:20 pm 13:20 Mostly Cloudy 37 3 36 2 93 93 WSW 10 17 30.27 1025 4 7 N/A
1:50 pm 13:50 Cloudy with Mist and Fog 37 3 36 2 93 93 WSW 9 15 30.27 1025 3 5 N/A
2:20 pm 14:20 Cloudy with Mist and Fog 37 3 36 2 93 93 WSW 10 17 30.27 1025 3 5 N/A
2:50 pm 14:50 Cloudy 37 3 36 2 93 93 WSW 10 17 30.27 1025 4 7 N/A
3:20 pm 15:20 Cloudy 37 3 36 2 93 93 WSW 10 17 30.27 1025 5 8 N/A
3:50 pm 15:50 Cloudy with Mist and Fog 37 3 36 2 93 93 WSW 10 17 30.24 1024 3 5 N/A
4:20 pm 16:20 Cloudy 37 3 36 2 93 93 WSW 10 17 30.24 1024 4 6 N/A
4:50 pm 16:50 Mostly Cloudy 37 3 36 2 93 93 WSW 10 17 30.24 1024 4 6 N/A
5:20 pm 17:20 Cloudy 39 4 37 3 93 93 WSW 9 15 30.24 1024 4 6 N/A
5:50 pm 17:50 Cloudy 39 4 37 3 93 93 WSW 10 17 30.24 1024 4 6 N/A
6:20 pm 18:20 Mostly Cloudy 39 4 37 3 93 93 WSW 9 15 30.21 1023 4 6 N/A
6:50 pm 18:50 Cloudy 39 4 37 3 93 93 WSW 10 17 30.21 1023 4 6 N/A
7:20 pm 19:20 Cloudy 39 4 37 3 93 93 WSW 10 17 30.21 1023 4 6 N/A
7:50 pm 19:50 Cloudy with Mist and Fog 39 4 37 3 93 93 WSW 9 15 30.21 1023 3 5 N/A
8:20 pm 20:20 Cloudy with Mist and Fog 41 5 39 4 93 93 WSW 12 19 30.18 1022 3 5 N/A
8:50 pm 20:50 Cloudy with Mist and Fog 41 5 39 4 93 93 WSW 12 19 30.18 1022 3 5 N/A
9:20 pm 21:20 Mostly Cloudy 41 5 39 4 93 93 WSW 12 19 30.18 1022 3 5 N/A
9:50 pm 21:50 Mostly Cloudy 41 5 37 3 87 87 WSW 12 19 30.18 1022 4 6 N/A
10:20 pm 22:20 Cloudy 41 5 37 3 87 87 WSW 10 17 30.18 1022 4 6 N/A
10:50 pm 22:50 Mostly Cloudy 41 5 37 3 87 87 WSW 10 17 30.15 1021 4 6 N/A
11:20 pm 23:20 Cloudy 41 5 39 4 93 93 VRB 9 15 30.15 1021 4 6 N/A
11:50 pm 23:50 Cloudy 41 5 39 4 93 93 WSW 10 17 30.12 1020 5 8 N/A

Powered by AerisWeather